SCP
0 0 0 0 0 0 0 0 0 0 0 0 0 0 0 0 0 0 0 0 0 0 0 0 0 0 0 0 0 0 0 0 0 0 0 0 0 0
0 0 0 0 0 0 0 0 0 0 0 0 0 0 0 0 0 0 0 0 0 0 0 0 0 0 0 0 0 0 0 0 0 0 0 0 0 0
0 0 0 0 0 0 0 0 0 0 0 0 0 0 0 0 0 0 0 0 0 0 0 0 0 0 0 0 0 0 0 0 0 0 0 0 0 0
0 0 0 0 0 0 0 0 0 0 0 0 0 0 0 0 0 0 0 0 0 0 0 0 0 0 0 0 0 0 0 0 0 0 0 0 0 0
0 0 0 0 0 0 0 0 0 0 0 0 0 0 0 0 0 0 0 0 0 0 0 0 0 0 0 0 0 0 0 0 0 0 0 0 0 0
0 0 0 0 0 0 0 0 0 0 0 0 0 0 0 0 0 0 0 0 0 0 0 0 0 0 0 0 0 0 0 0 0 0 0 0 0 0
0 0 0 0 0 0 0 0 0 0 0 0 0 0 0 0 0 0 0 0 0 0 0 0 0 0 0 0 0 0 0 0 0 0 0 0 0 0
0 0 0 0 0 0 0 0 0 0 0 0 0 0 0 0 0 0 0 0 0 0 0 0 0 0 0 0 0 0 0 0 0 0 0 0 0 0
0 0 0 0 0 0 0 0 0 0 0 0 0 0 0 0 0 0 0 0 0 0 0 0 0 0 0 0 0 0 0 0 0 0 0 0 0 0
0 0 0 0 0 0 0 0 0 0 0 0 0 0 0 0 0 0 0 0 0 0 0 0 0 0 0 0 0 0 0 0 0 0 0 0 0 0
0 0 0 0 0 0 0 0 0 0 0 0 0 0 0 0 0 0 0 0 0 0 0 0 0 0 0 0 0 0 0 0 0 0 0 0 0 0
0 0 0 0 0 0 0 0 0 0 0 0 0 0 0 0 0 0 0 0 0 0 0 0 0 0 0 0 0 0 0 0 0 0 0 0 0 0
0 0 0 0 0 0 0 0 0 0 0 0 0 0 0 0 0 0 0 0 0 0 0 0 0 0 0 0 0 0 0 0 0 0 0 0 0 0
0 0 0 0 0 0 0 0 0 0 0 0 0 0 0 0 0 0 0 0 0 0 0 0 0 0 0 0 0 0 0 0 0 0 0 0 0 0
0 0 -0 0 0 -0 0 0 0 0 0 0 0 0 0 0 0 0 0 0 0 0 0 0 0 0 0 0 0 0 0 0 0 0 0 0 0 0
0 0 0 0 -0 -0 0 0 0 0 0 0 0 0 0 0 0 0 0 0 0 0 0 0 0 0 0 0 0 0 0 0 0 0 0 0 0 0
0 0 0 0 0 0 0 0 0 0 0 0 0 0 0 0 0 0 0 0 0 0 0 0 0 0 0 0 0 0 0 0 0 0 0 0 0 0
0 0 0 0 0 0 0 0 0 0 0 0 0 0 0 0 0 0 0 0 0 0 0 0 0 0 0 0 0 0 0 0 0 0 0 0 0 0
0 0 0 0 0 0 -0 -0 -0 -0 0 0 0 0 0 0 0 0 0 0 0 0 0 0 0 0 0 0 0 0 0 0 0 0 0 0 0 0
0 0 0 0 -0 -0 -0 -0 -0 0 0 0 0 0 0 0 0 0 0 0 0 0 0 0 0 0 0 0 0 0 0 0 0 0 0 0 0 0
0 -0 -0 -0 -0 -0 -0 -0 0 0 0 0 0 0 0 0 0 0 0 0 0 0 0 0 0 0 0 0 0 0 0 0 0 0 0 0 0 0
-0 -0 -0 -0 -0 -0 0 0 0 0 0 0 0 0 0 0 0 0 0 0 0 0 0 0 0 0 0 0 0 0 0 0 0 0 0 0 0 0
-0 -0 -0 0 0 0 0 0 0 0 0 0 0 0 0 0 0 0 0 0 0 0 0 0 0 0 0 0 0 0 0 0 0 0 0 0 0 0
Wind_Speed_500mb
81 85 90 77 87 105 115 114 85 67 88 106 99 112 108 102 96 93 91 86 83 77 71 64 61 58 53 48 44 41 39 39 40 37 35 33 33 35
84 80 81 81 86 86 104 106 95 86 78 109 109 114 112 107 104 101 99 93 90 85 76 69 64 59 55 52 47 43 42 41 38 38 37 38 39 37
79 81 84 82 86 98 106 102 95 96 83 75 103 114 104 110 113 108 108 99 96 89 78 74 67 61 58 52 52 45 44 42 42 42 42 42 41 41
79 79 85 84 84 85 90 94 103 105 99 96 99 99 107 108 110 113 114 108 100 91 82 77 68 65 59 57 55 46 48 46 44 44 47 46 45 44
75 81 86 85 92 96 95 94 97 95 109 106 95 85 91 101 102 104 104 109 106 96 86 79 83 67 67 59 52 53 51 47 47 46 48 48 48 47
75 79 81 88 89 91 91 86 90 101 105 106 100 98 101 99 93 98 98 95 104 102 90 92 82 75 65 60 60 57 53 49 48 49 49 49 49 48
77 71 84 82 84 92 84 82 88 99 98 105 104 93 89 91 94 93 91 88 94 96 99 90 81 74 59 75 54 59 52 50 51 50 52 54 55 56
70 65 77 84 79 75 65 77 82 81 88 99 101 103 99 95 89 93 84 82 82 94 93 84 79 70 67 61 55 57 52 53 53 55 57 59 62 65
63 59 72 71 66 60 60 60 75 80 79 78 90 97 94 80 80 81 74 77 84 76 79 78 77 64 58 58 54 54 56 56 56 58 61 63 68 71
58 73 69 61 61 54 58 66 72 66 67 65 72 85 90 79 76 59 66 71 68 55 47 56 54 49 55 56 57 51 49 53 58 61 64 68 70 73
52 63 52 53 52 47 54 61 63 55 53 51 56 57 61 52 63 55 47 50 49 48 44 34 38 45 43 42 43 47 52 56 60 62 63 65 66 67
58 47 41 42 45 46 52 59 57 52 49 52 45 41 42 37 30 25 31 40 38 31 33 44 42 40 40 46 46 48 48 46 47 52 57 68 71 71
42 36 32 30 34 37 34 42 42 46 47 53 56 46 37 41 42 37 32 24 27 29 20 25 33 37 37 35 41 46 55 60 62 60 59 58 58 62
30 27 24 24 25 24 26 26 33 52 58 51 45 46 45 41 31 26 26 24 26 28 30 33 37 39 42 48 53 56 61 67 67 67 63 63 57 54
22 27 34 35 33 31 30 49 57 49 54 57 53 46 37 30 27 24 23 23 24 26 29 33 37 42 46 49 53 56 58 62 63 59 57 64 69 68
45 52 49 49 54 57 52 53 58 54 48 44 38 32 29 25 21 19 19 19 20 26 28 32 35 37 39 44 49 54 56 53 61 61 63 63 64 63
64 63 64 63 66 64 61 55 48 41 35 33 30 25 20 15 12 11 15 16 16 20 20 27 32 34 39 44 48 47 48 46 48 53 58 62 66 64
66 65 65 62 57 51 48 45 39 33 29 24 21 17 13 8 7 8 11 14 16 21 25 31 37 41 42 37 34 33 39 43 47 51 56 61 61 55
63 61 56 51 48 43 38 34 32 26 22 19 15 12 7 6 8 9 10 12 17 22 28 30 30 32 34 35 34 36 39 45 47 48 46 46 54 57
48 48 46 42 39 36 33 30 26 22 17 13 9 7 4 3 3 5 7 9 10 13 18 24 27 30 32 35 43 41 30 39 42 45 49 51 51 52
42 41 38 35 32 28 25 22 19 18 16 13 12 10 8 6 5 5 6 9 12 16 20 25 29 31 34 35 38 41 37 33 39 46 53 53 58 57
35 34 33 31 29 27 27 25 22 20 17 14 12 10 9 7 9 11 13 16 20 23 26 29 33 34 36 37 40 44 47 41 32 32 35 34 41 50
31 30 31 30 28 26 23 21 18 16 14 11 9 9 12 14 15 16 18 23 27 31 34 36 36 36 36 39 43 47 46 46 45 48 37 24 32 35
Wind_Direction_500mb
233 240 236 233 240 230 228 222 222 200 210 212 217 220 223 225 228 231 232 233 236 234 234 234 237 238 240 241 244 250 255 259 261 259 258 259 259 258
226 229 235 234 232 226 216 216 220 227 216 221 231 227 224 227 228 231 232 234 236 238 235 235 236 239 241 241 244 250 255 259 258 249 253 254 259 261
228 224 227 222 221 225 226 228 228 224 227 229 230 228 228 231 229 232 231 232 235 237 237 235 234 238 241 244 245 250 257 260 259 259 257 256 258 261
229 223 223 222 222 223 227 229 228 235 234 230 232 225 225 231 228 235 231 231 234 235 234 235 233 232 237 240 244 253 258 260 262 263 264 268 267 264
232 222 220 216 221 222 228 232 235 236 225 227 227 228 227 229 233 233 234 232 233 232 233 233 233 228 237 240 241 249 258 261 263 265 268 270 273 274
230 225 217 217 219 221 223 230 235 231 227 230 232 234 230 225 227 228 227 230 231 232 231 232 236 228 232 240 239 248 257 263 266 268 272 276 278 278
221 226 216 212 221 227 228 235 237 234 233 232 233 225 219 217 220 232 223 224 225 229 231 232 231 228 230 237 235 250 260 266 268 270 273 276 279 280
217 229 216 214 224 231 234 243 245 239 239 235 231 230 234 229 224 219 213 215 220 231 230 230 230 231 233 241 241 253 262 264 266 267 271 276 278 280
222 229 213 223 226 231 238 242 247 249 249 251 245 239 235 231 221 211 214 226 225 226 228 228 228 235 240 239 249 256 260 261 262 266 269 272 276 278
224 214 211 221 224 229 228 232 238 238 234 241 244 242 230 225 220 218 224 220 221 226 223 225 233 234 241 249 254 254 255 258 262 266 269 273 275 278
224 222 218 221 222 221 223 227 227 225 223 233 232 227 222 219 214 215 211 211 213 216 219 217 227 238 247 252 254 255 258 261 264 268 270 273 275 278
204 211 212 219 222 227 229 224 219 215 222 210 206 181 168 159 167 193 208 200 196 201 216 226 241 252 259 260 258 259 257 260 266 271 274 275 279 279
186 190 198 205 218 225 215 217 217 203 200 183 160 158 156 160 164 163 166 180 211 219 225 227 244 249 249 255 258 266 272 276 279 282 281 282 281 278
173 180 175 162 177 183 184 189 189 169 162 161 157 148 146 145 149 170 191 205 218 230 240 248 253 258 265 273 279 281 285 288 291 293 295 296 294 288
155 150 142 149 149 144 145 156 157 161 155 142 136 135 137 151 173 188 205 219 232 241 252 260 267 272 277 281 284 286 292 294 294 297 297 296 294 293
137 133 140 140 135 135 145 145 143 139 134 127 124 138 160 172 185 203 220 236 253 264 268 271 275 278 278 281 285 291 296 296 297 298 295 295 297 299
131 132 133 131 130 134 133 128 122 118 126 139 146 154 164 180 195 227 253 263 266 267 274 280 278 282 287 293 293 294 293 292 290 294 295 299 302 305
128 128 128 132 130 125 122 125 130 135 137 140 142 155 170 181 210 242 262 259 265 277 282 287 296 301 302 301 304 297 301 297 296 298 298 301 307 316
122 125 125 126 127 130 129 129 131 136 142 146 147 152 169 209 244 252 271 287 296 295 294 298 302 306 310 311 297 301 304 304 303 307 314 316 314 321
122 124 126 129 131 133 132 132 130 124 122 126 141 156 169 199 249 291 309 309 301 299 307 314 319 321 321 317 310 317 313 317 318 317 321 318 317 318
127 127 126 126 126 125 124 126 127 128 128 127 128 130 123 92 70 44 6 348 340 335 336 337 339 335 327 319 317 325 326 321 320 314 318 318 320 321
125 126 126 128 128 127 124 122 121 118 115 110 102 92 74 52 33 25 16 6 359 353 349 345 343 342 341 338 329 327 326 328 329 327 322 319 321 314
127 127 124 122 119 118 117 118 116 110 102 94 88 79 65 48 34 19 9 6 4 360 355 352 351 348 341 338 334 335 335 335 333 335 334 334 339 335
Wind_Speed_850mb
81 85 90 77 87 105 115 114 85 67 88 106 99 112 108 102 96 93 91 86 83 77 71 64 61 58 53 48 44 41 39 39 40 37 35 33 33 35
84 80 81 81 86 86 104 106 95 86 78 109 109 114 112 107 104 101 99 93 90 85 76 69 64 59 55 52 47 43 42 41 38 38 37 38 39 37
79 81 84 82 86 98 106 102 95 96 83 75 103 114 104 110 113 108 108 99 96 89 78 74 67 61 58 52 52 45 44 42 42 42 42 42 41 41
79 79 85 84 84 85 90 94 103 105 99 96 99 99 107 108 110 113 114 108 100 91 82 77 68 65 59 57 55 46 48 46 44 44 47 46 45 44
75 81 86 85 92 96 95 94 97 95 109 106 95 85 91 101 102 104 104 109 106 96 86 79 83 67 67 59 52 53 51 47 47 46 48 48 48 47
75 79 81 88 89 91 91 86 90 101 105 106 100 98 101 99 93 98 98 95 104 102 90 92 82 75 65 60 60 57 53 49 48 49 49 49 49 48
77 71 84 82 84 92 84 82 88 99 98 105 104 93 89 91 94 93 91 88 94 96 99 90 81 74 59 75 54 59 52 50 51 50 52 54 55 56
70 65 77 84 79 75 65 77 82 81 88 99 101 103 99 95 89 93 84 82 82 94 93 84 79 70 67 61 55 57 52 53 53 55 57 59 62 65
63 59 72 71 66 60 60 60 75 80 79 78 90 97 94 80 80 81 74 77 84 76 79 78 77 64 58 58 54 54 56 56 56 58 61 63 68 71
58 73 69 61 61 54 58 66 72 66 67 65 72 85 90 79 76 59 66 71 68 55 47 56 54 49 55 56 57 51 49 53 58 61 64 68 70 73
52 63 52 53 52 47 54 61 63 55 53 51 56 57 61 52 63 55 47 50 49 48 44 34 38 45 43 42 43 47 52 56 60 62 63 65 66 67
58 47 41 42 45 46 52 59 57 52 49 52 45 41 42 37 30 25 31 40 38 31 33 44 42 40 40 46 46 48 48 46 47 52 57 68 71 71
42 36 32 30 34 37 34 42 42 46 47 53 56 46 37 41 42 37 32 24 27 29 20 25 33 37 37 35 41 46 55 60 62 60 59 58 58 62
30 27 24 24 25 24 26 26 33 52 58 51 45 46 45 41 31 26 26 24 26 28 30 33 37 39 42 48 53 56 61 67 67 67 63 63 57 54
22 27 34 35 33 31 30 49 57 49 54 57 53 46 37 30 27 24 23 23 24 26 29 33 37 42 46 49 53 56 58 62 63 59 57 64 69 68
45 52 49 49 54 57 52 53 58 54 48 44 38 32 29 25 21 19 19 19 20 26 28 32 35 37 39 44 49 54 56 53 61 61 63 63 64 63
64 63 64 63 66 64 61 55 48 41 35 33 30 25 20 15 12 11 15 16 16 20 20 27 32 34 39 44 48 47 48 46 48 53 58 62 66 64
66 65 65 62 57 51 48 45 39 33 29 24 21 17 13 8 7 8 11 14 16 21 25 31 37 41 42 37 34 33 39 43 47 51 56 61 61 55
63 61 56 51 48 43 38 34 32 26 22 19 15 12 7 6 8 9 10 12 17 22 28 30 30 32 34 35 34 36 39 45 47 48 46 46 54 57
48 48 46 42 39 36 33 30 26 22 17 13 9 7 4 3 3 5 7 9 10 13 18 24 27 30 32 35 43 41 30 39 42 45 49 51 51 52
42 41 38 35 32 28 25 22 19 18 16 13 12 10 8 6 5 5 6 9 12 16 20 25 29 31 34 35 38 41 37 33 39 46 53 53 58 57
35 34 33 31 29 27 27 25 22 20 17 14 12 10 9 7 9 11 13 16 20 23 26 29 33 34 36 37 40 44 47 41 32 32 35 34 41 50
31 30 31 30 28 26 23 21 18 16 14 11 9 9 12 14 15 16 18 23 27 31 34 36 36 36 36 39 43 47 46 46 45 48 37 24 32 35
Wind_Direction_850mb
233 240 236 233 240 230 228 222 222 200 210 212 217 220 223 225 228 231 232 233 236 234 234 234 237 238 240 241 244 250 255 259 261 259 258 259 259 258
226 229 235 234 232 226 216 216 220 227 216 221 231 227 224 227 228 231 232 234 236 238 235 235 236 239 241 241 244 250 255 259 258 249 253 254 259 261
228 224 227 222 221 225 226 228 228 224 227 229 230 228 228 231 229 232 231 232 235 237 237 235 234 238 241 244 245 250 257 260 259 259 257 256 258 261
229 223 223 222 222 223 227 229 228 235 234 230 232 225 225 231 228 235 231 231 234 235 234 235 233 232 237 240 244 253 258 260 262 263 264 268 267 264
232 222 220 216 221 222 228 232 235 236 225 227 227 228 227 229 233 233 234 232 233 232 233 233 233 228 237 240 241 249 258 261 263 265 268 270 273 274
230 225 217 217 219 221 223 230 235 231 227 230 232 234 230 225 227 228 227 230 231 232 231 232 236 228 232 240 239 248 257 263 266 268 272 276 278 278
221 226 216 212 221 227 228 235 237 234 233 232 233 225 219 217 220 232 223 224 225 229 231 232 231 228 230 237 235 250 260 266 268 270 273 276 279 280
217 229 216 214 224 231 234 243 245 239 239 235 231 230 234 229 224 219 213 215 220 231 230 230 230 231 233 241 241 253 262 264 266 267 271 276 278 280
222 229 213 223 226 231 238 242 247 249 249 251 245 239 235 231 221 211 214 226 225 226 228 228 228 235 240 239 249 256 260 261 262 266 269 272 276 278
224 214 211 221 224 229 228 232 238 238 234 241 244 242 230 225 220 218 224 220 221 226 223 225 233 234 241 249 254 254 255 258 262 266 269 273 275 278
224 222 218 221 222 221 223 227 227 225 223 233 232 227 222 219 214 215 211 211 213 216 219 217 227 238 247 252 254 255 258 261 264 268 270 273 275 278
204 211 212 219 222 227 229 224 219 215 222 210 206 181 168 159 167 193 208 200 196 201 216 226 241 252 259 260 258 259 257 260 266 271 274 275 279 279
186 190 198 205 218 225 215 217 217 203 200 183 160 158 156 160 164 163 166 180 211 219 225 227 244 249 249 255 258 266 272 276 279 282 281 282 281 278
173 180 175 162 177 183 184 189 189 169 162 161 157 148 146 145 149 170 191 205 218 230 240 248 253 258 265 273 279 281 285 288 291 293 295 296 294 288
155 150 142 149 149 144 145 156 157 161 155 142 136 135 137 151 173 188 205 219 232 241 252 260 267 272 277 281 284 286 292 294 294 297 297 296 294 293
137 133 140 140 135 135 145 145 143 139 134 127 124 138 160 172 185 203 220 236 253 264 268 271 275 278 278 281 285 291 296 296 297 298 295 295 297 299
131 132 133 131 130 134 133 128 122 118 126 139 146 154 164 180 195 227 253 263 266 267 274 280 278 282 287 293 293 294 293 292 290 294 295 299 302 305
128 128 128 132 130 125 122 125 130 135 137 140 142 155 170 181 210 242 262 259 265 277 282 287 296 301 302 301 304 297 301 297 296 298 298 301 307 316
122 125 125 126 127 130 129 129 131 136 142 146 147 152 169 209 244 252 271 287 296 295 294 298 302 306 310 311 297 301 304 304 303 307 314 316 314 321
122 124 126 129 131 133 132 132 130 124 122 126 141 156 169 199 249 291 309 309 301 299 307 314 319 321 321 317 310 317 313 317 318 317 321 318 317 318
127 127 126 126 126 125 124 126 127 128 128 127 128 130 123 92 70 44 6 348 340 335 336 337 339 335 327 319 317 325 326 321 320 314 318 318 320 321
125 126 126 128 128 127 124 122 121 118 115 110 102 92 74 52 33 25 16 6 359 353 349 345 343 342 341 338 329 327 326 328 329 327 322 319 321 314
127 127 124 122 119 118 117 118 116 110 102 94 88 79 65 48 34 19 9 6 4 360 355 352 351 348 341 338 334 335 335 335 333 335 334 334 339 335